Simultaneous Nadir Overpasses (SNOs) Predictions

Prediction of SNOs between NOAA-19 and TERRA Satellite Orbit:

Table of predicted SNOs for the next 14.0 days since TLE Epoch: 9/14/2024
Index Date (NOAA-19) Time (NOAA-19) Lat,Lon (NOAA-19) SZA (NOAA-19 ) Date (TERRA) Time (TERRA) Lat,Lon (TERRA) SZA (TERRA ) Distance(km) Time Diff (sec)
1 09/14/2024 12:55:35 74.09, -18.93 70.95 09/14/2024 12:55:26 74.08, -18.97 70.94 1.54 9
2 09/16/2024 15:54:34 73.43, -65.21 71.14 09/16/2024 15:54:51 73.44, -65.17 71.14 1.76 17
3 09/18/2024 18:53:28 72.98,-110.88 71.54 09/18/2024 18:54:11 72.97,-110.92 71.52 1.95 43
4 09/18/2024 19:44:07 -74.25, 59.46 107.26 09/18/2024 19:43:09 -74.24, 59.38 107.26 2.77 58
5 09/20/2024 21:52:27 72.26,-157.06 71.68 09/20/2024 21:53:34 72.26,-157.06 71.67 0.43 67
6 09/20/2024 22:43:04 -73.66, 13.31 107.00 09/20/2024 22:42:30 -73.65, 13.28 107.01 1.03 34
7 09/23/2024 01:42:00 -73.08, -32.70 106.73 09/23/2024 01:41:49 -73.08, -32.69 106.73 0.32 11
8 09/25/2024 04:40:57 -72.42, -78.77 106.53 09/25/2024 04:41:08 -72.42, -78.74 106.53 1.06 11
9 09/27/2024 07:39:53 -71.77,-124.70 106.31 09/27/2024 07:40:25 -71.78,-124.66 106.31 1.39 32



Historial Predications of SNOs between NOAA-19 and TERRA
